This demonstration page uses our WeatherBlox Daily Observations layout. Learn more.

Left ArrowRight Arrow

Hourly Observations for May 24, 2021

Temp ( °F °C ) Dew Point ( °F °C ) Humidity (%) Winds ( mph kmh ) Pressure ( in mb ) Visibility ( mi km ) Precip ( " mm )
12:53 am 00:53 Cloudy 43 6.1 41 5 93 93 SW 14 22 29.72 1007 10 16 0.00 0.00
1:53 am 01:53 Partly Cloudy 40 4.4 38 3.3 93 93 SW 14 22 29.70 1006 10 16 0.00 0.00
2:53 am 02:53 Clear 39 3.9 37 2.8 93 93 SW 15 24 29.67 1005 10 16 0.00 0.00
3:53 am 03:53 Mostly Cloudy 38 3.3 36 2.2 93 93 SW 13 20 29.65 1004 10 16 0.00 0.00
4:53 am 04:53 Cloudy 40 4.4 38 3.3 93 93 SW 15 24 29.62 1003 10 16 0.00 0.00
5:53 am 05:53 Cloudy 41 5 38 3.3 89 89 SW 13 20 29.62 1003 10 16 0.00 0.00
6:53 am 06:53 Cloudy 41 5 38 3.3 89 89 WSW 13 20 29.62 1003 10 16 0.00 0.00
7:53 am 07:53 Cloudy with Light Rain 41 5 39 3.9 93 93 SW 16 26 29.63 1003 10 16 0.00 0.00
8:21 am 08:21 Cloudy with Light Rain 42 5.6 40 4.4 92 92 WSW 14 22 29.65 1004 10 16 0.01 0.25
8:53 am 08:53 Cloudy with Light Rain 42 5.6 40 4.4 92 92 WSW 15 24 29.63 1003 10 16 0.02 0.51
9:53 am 09:53 Cloudy with Light Rain 45 7.2 43 6.1 93 93 SW 16 26 29.62 1003 10 16 0.02 0.51
10:01 am 10:01 Cloudy 45 7.2 43 6.1 93 93 WSW 17 28 29.63 1003 10 16 0.00 0.00
10:13 am 10:13 Cloudy 45 7.2 42 5.6 90 90 WSW 15 24 29.63 1003 10 16 0.00 0.00
10:31 am 10:31 Cloudy with Light Rain 45 7.2 43 6.1 93 93 WSW 16 26 29.63 1003 10 16 0.01 0.25
10:53 am 10:53 Cloudy with Light Rain 45 7.2 43 6.1 93 93 SW 16 26 29.62 1003 10 16 0.02 0.51
11:53 am 11:53 Cloudy 49 9.4 44 6.7 83 83 WSW 18 30 29.60 1003 10 16 0.01 0.25
12:53 pm 12:53 Cloudy 51 10.6 44 6.7 77 77 WSW 23 37 29.58 1002 10 16 0.00 0.00
1:53 pm 13:53 Cloudy 59 15 46 7.8 62 62 WSW 25 41 29.57 1001 10 16 0.00 0.00
2:53 pm 14:53 Cloudy 61 16.1 43 6.1 52 52 WSW 35 56 29.55 1001 10 16 0.00 0.00
3:53 pm 15:53 Cloudy with Light Rain 52 11.1 45 7.2 77 77 W 26 43 29.62 1003 8 13 0.00 0.00
4:53 pm 16:53 Cloudy 54 12.2 47 8.3 77 77 W 24 39 29.62 1003 10 16 0.01 0.25
5:53 pm 17:53 Cloudy with Rain 51 10.6 47 8.3 86 86 WNW 31 50 29.65 1004 5 8 0.00 0.00
6:53 pm 18:53 Mostly Cloudy 54 12.2 46 7.8 75 75 W 26 43 29.66 1004 10 16 0.03 0.76
7:53 pm 19:53 Cloudy 51 10.6 45 7.2 80 80 W 25 41 29.69 1005 10 16 0.00 0.00
8:53 pm 20:53 Cloudy with Light Rain 50 10 45 7.2 83 83 W 21 33 29.71 1006 10 16 0.00 0.00
9:53 pm 21:53 Cloudy 50 10 45 7.2 83 83 W 21 33 29.73 1007 10 16 0.00 0.00
10:44 pm 22:44 Cloudy 51 10.6 45 7.2 80 80 W 22 35 29.73 1007 10 16 0.00 0.00
10:53 pm 22:53 Cloudy 51 10.6 45 7.2 80 80 W 23 37 29.76 1008 10 16 0.00 0.00
11:21 pm 23:21 Cloudy 51 10.6 45 7.2 80 80 W 23 37 29.74 1007 10 16 0.00 0.00
11:53 pm 23:53 Cloudy 50 10 45 7.2 83 83 W 22 35 29.78 1008 10 16 0.00 0.00

Powered by AerisWeather